SNUGLITE (43784 NORAD) Tracking and Keplerian Element Data

This shows tracking and keplerian element data for the satellite.

Feedback or suggestion? Click here.




ElementValue
Catalog43784
NameSNUGLITE
Epoch Orbit33763
Epoch Day35.1254724
Epoch Year2025
RAAN91.8666
Inclination97.4618
Eccentricity0.0002865
Argument of Perigee216.1122
Mean Anonmoly143.9917
Mean Motion15.13746636
Decay Rate0.00013697
L11 43784U 18099AC 25035.12547240 .00013697 00000+0 76255-3 0 9996
L22 43784 97.4618 91.8666 0002865 216.1122 143.9917 15.13746636337633



Live tracking and technical data element details for SNUGLITE (NORAD 43784). SNUGLITE can be tracked NOW for your location showing map with azimuth and elevation plus other details from your city location.







IsCatalogInMostPopularTable: catalog: 43784, numindb: 333
Update: records affected: 1



GetName: 43784 SNUGLITE

Hit Count: updated at: Thu, 15 May 2025 10:57:22 GMT